Location: Bottom School (historical)
(37.9078°N, 89.3593°W)
Time: 22:58:52
(UTC+00:00)

STRAND 1 - Pass Details

Date: 09 April 2023
Orbit: 767 x 779 km, 98.4° (Epoch: 28 May)

Event Time Altitude Azimuth Distance (km) Brightness Sun altitude
Rises 02:14:34 0° 351° (N) 3,244 ? -20.9°
Reaches altitude 10° 02:18:05 10° 326° (NW) 2,312 ? -21.5°
Maximum altitude 02:20:25 13° 298° (WNW) 2,085 ? -21.9°
Drops below altitude 10° 02:22:46 10° 270° (W) 2,307 ? -22.3°
Sets 02:26:17 0° 245° (WSW) 3,230 ? -22.9°
